| time (UTC) | temp C | wind direction | speed KPH | gust KPH | rain 1hr cm | rain 24hr cm | rain mn cm | humidity % | barometer mb |
| 20260506190908 | -17 | 38.6 | 64.4 | 0.00 | 0.00 | 0.00 | |||
| 20260506185908 | -17 | 25.7 | 51.5 | 0.00 | 0.00 | 0.00 | |||
| 20260506183834 | 18 | 25.7 | 51.5 | 0.00 | 0.00 | 0.00 | 72 | 980.9 | |
| 20260506182834 | 18 | 25.7 | 51.5 | 0.00 | 0.00 | 0.00 | 72 | 980.9 | |
| 20260506181834 | 18 | 25.7 | 51.5 | 0.00 | 0.00 | 0.00 | 72 | 980.9 | |
| 20260506180834 | 18 | 25.7 | 64.4 | 0.00 | 0.00 | 0.00 | 72 | 980.9 | |
| 20260506175834 | 18 | 25.7 | 64.4 | 0.00 | 0.00 | 0.00 | 72 | 980.9 | |
| 20260506174833 | 18 | 25.7 | 64.4 | 0.00 | 0.00 | 0.00 | 72 | 980.9 | |
| 20260506173834 | 18 | 25.7 | 64.4 | 0.00 | 0.00 | 0.00 | 72 | 980.9 | |
| 20260506172834 | 18 | 25.7 | 64.4 | 0.00 | 0.00 | 0.00 | 72 | 980.9 | |
| 20260506171834 | 19 | 25.7 | 64.4 | 0.00 | 0.00 | 0.00 | 63 | 980.7 | |
| 20260506170834 | 19 | 25.7 | 64.4 | 0.00 | 0.00 | 0.00 | 63 | 980.7 | |
| 20260506165834 | 19 | 25.7 | 64.4 | 0.00 | 0.00 | 0.00 | 63 | 980.7 | |
| 20260506164833 | 19 | 38.6 | 90.1 | 0.00 | 0.00 | 0.00 | 63 | 980.7 | |
| 20260506162530 | 20 | 38.6 | 90.1 | 0.00 | 0.00 | 0.00 | 63 | 980.9 | |
| 20260506161529 | 20 | 51.5 | 90.1 | 0.00 | 0.00 | 0.00 | 63 | 980.9 | |
| 20260506160529 | 20 | 51.5 | 90.1 | 0.00 | 0.00 | 0.00 | 63 | 980.9 | |
| 20260506155530 | 21 | 51.5 | 90.1 | 0.00 | 0.00 | 0.00 | 43 | 981.5 | |
| 20260506154529 | 21 | 51.5 | 90.1 | 0.00 | 0.00 | 0.00 | 43 | 981.5 | |
| 20260506153529 | 21 | 51.5 | 90.1 | 0.00 | 0.00 | 0.00 | 43 | 981.5 | |
| 20260506152530 | 21 | 51.5 | 90.1 | 0.00 | 0.00 | 0.00 | 43 | 981.5 | |
| 20260506151529 | 21 | 51.5 | 103.0 | 0.00 | 0.00 | 0.00 | 43 | 981.5 | |
| 20260506150529 | 21 | 51.5 | 103.0 | 0.00 | 0.00 | 0.00 | 43 | 981.5 | |
| 20260506145529 | 21 | 51.5 | 103.0 | 0.00 | 0.00 | 0.00 | 43 | 981.5 | |
| 20260506144529 | 21 | 51.5 | 103.0 | 0.00 | 0.00 | 0.00 | 43 | 981.5 | |
| 20260506143529 | 21 | 51.5 | 103.0 | 0.00 | 0.00 | 0.00 | 43 | 981.5 | |
| 20260506142529 | 21 | 51.5 | 103.0 | 0.00 | 0.00 | 0.00 | 43 | 981.5 | |
| 20260506141529 | 21 | 64.4 | 115.9 | 0.00 | 0.00 | 0.00 | 43 | 981.5 | |
| 20260506140530 | 21 | 64.4 | 115.9 | 0.00 | 0.00 | 0.00 | 43 | 981.5 | |
| 20260506135529 | -17 | 64.4 | 115.9 | 0.00 | 0.00 | 0.00 | |||
| 20260506134529 | -17 | 64.4 | 115.9 | 0.00 | 0.00 | 0.00 | |||
| 20260506133529 | -17 | 64.4 | 115.9 | 0.00 | 0.00 | 0.00 | |||
| 20260506131629 | 22 | 64.4 | 115.9 | 0.00 | 0.00 | 0.00 | 42 | 981.7 | |
| 20260506130628 | 21 | 64.4 | 115.9 | 0.00 | 0.00 | 0.00 | 47 | 982.1 | |
| 20260506125628 | 21 | 77.2 | 130.4 | 0.00 | 0.00 | 0.00 | 47 | 982.1 | |
| 20260506124628 | 21 | 77.2 | 130.4 | 0.00 | 0.00 | 0.00 | 47 | 982.1 | |
| 20260506123629 | 21 | 77.2 | 130.4 | 0.00 | 0.00 | 0.00 | 47 | 982.1 | |
| 20260506122628 | 20 | 77.2 | 130.4 | 0.00 | 0.00 | 0.00 | 53 | 981.8 | |
| 20260506121628 | 20 | 77.2 | 130.4 | 0.00 | 0.00 | 0.00 | 53 | 981.8 | |
| 20260506120629 | 20 | 77.2 | 130.4 | 0.00 | 0.00 | 0.00 | 53 | 981.8 | |
| 20260506115628 | 20 | 64.4 | 115.9 | 0.00 | 0.00 | 0.00 | 53 | 981.8 | |
| 20260506114628 | 18 | 64.4 | 115.9 | 0.00 | 0.00 | 0.00 | 53 | 981.7 | |
| 20260506113628 | 18 | 64.4 | 130.4 | 0.00 | 0.00 | 0.00 | 53 | 981.7 | |
| 20260506112629 | 18 | 64.4 | 130.4 | 0.00 | 0.00 | 0.00 | 53 | 981.7 | |
| 20260506111629 | 18 | 77.2 | 130.4 | 0.00 | 0.00 | 0.00 | 53 | 981.7 | |
| 20260506110628 | 18 | 77.2 | 130.4 | 0.00 | 0.00 | 0.00 | 53 | 981.7 | |
| 20260506105628 | 18 | 77.2 | 130.4 | 0.00 | 0.00 | 0.00 | 53 | 981.7 | |
| 20260506104629 | 18 | 77.2 | 130.4 | 0.00 | 0.00 | 0.00 | 53 | 981.7 | |
| 20260506103629 | 18 | 64.4 | 115.9 | 0.00 | 0.00 | 0.00 | 53 | 981.7 | |
| 20260506102628 | 18 | 64.4 | 115.9 | 0.00 | 0.00 | 0.00 | 53 | 981.7 | |
| 20260506101628 | 18 | 64.4 | 115.9 | 0.00 | 0.00 | 0.00 | 53 | 981.7 | |
| 20260506100629 | 18 | 64.4 | 115.9 | 0.00 | 0.00 | 0.00 | 53 | 981.7 | |
| 20260506095628 | 18 | 77.2 | 130.4 | 0.00 | 0.00 | 0.00 | 53 | 981.7 | |
| 20260506094629 | 18 | 77.2 | 130.4 | 0.00 | 0.00 | 0.00 | 53 | 981.7 | |
| 20260506093628 | 20 | 77.2 | 130.4 | 0.00 | 0.00 | 0.00 | 54 | 981.4 | |
| 20260506092628 | 20 | 77.2 | 130.4 | 0.00 | 0.00 | 0.00 | 54 | 981.4 | |
| 20260506091628 | 20 | 77.2 | 115.9 | 0.00 | 0.00 | 0.00 | 54 | 981.4 | |
| 20260506090629 | 20 | 77.2 | 115.9 | 0.00 | 0.00 | 0.00 | 54 | 981.4 | |
| 20260506085629 | 18 | 64.4 | 103.0 | 0.00 | 0.00 | 0.00 | 63 | 981.5 | |
| 20260506084628 | 18 | 64.4 | 103.0 | 0.00 | 0.00 | 0.00 | 63 | 981.5 | |
| 20260506083628 | 18 | 64.4 | 103.0 | 0.00 | 0.00 | 0.00 | 63 | 981.5 | |
| 20260506082628 | 18 | 64.4 | 103.0 | 0.00 | 0.00 | 0.00 | 63 | 981.5 | |
| 20260506081628 | 17 | 64.4 | 103.0 | 0.00 | 0.00 | 0.00 | 77 | 981.6 | |
| 20260506080629 | 17 | 64.4 | 103.0 | 0.00 | 0.00 | 0.00 | 77 | 981.6 | |
| 20260506072628 | 14 | 38.6 | 77.2 | 0.00 | 0.00 | 0.00 | 100 | 981.4 | |
| 20260506071629 | 14 | 38.6 | 77.2 | 0.00 | 0.00 | 0.00 | 100 | 981.4 | |
| 20260506070628 | 14 | 38.6 | 77.2 | 0.00 | 0.00 | 0.00 | 100 | 981.4 | |
| 20260506061628 | 14 | 25.7 | 64.4 | 0.00 | 0.00 | 0.00 | 100 | 981.4 | |
| 20260506060629 | 11 | 25.7 | 64.4 | 0.00 | 0.00 | 0.00 | 100 | 981.2 | |
| 20260506050628 | 11 | 12.9 | 38.6 | 0.00 | 0.00 | 0.00 | 100 | 981.2 | |
| 20260506044628 | 12 | 12.9 | 38.6 | 0.00 | 0.00 | 0.00 | 100 | 981.6 | |
| 20260506043628 | 12 | 12.9 | 38.6 | 0.00 | 0.00 | 0.00 | 100 | 981.6 | |
| 20260506042628 | 12 | 12.9 | 38.6 | 0.00 | 0.00 | 0.00 | 100 | 981.6 | |
| 20260506041629 | 12 | 12.9 | 38.6 | 0.00 | 0.00 | 0.00 | 100 | 981.6 | |
| 20260506040628 | 12 | 12.9 | 38.6 | 0.00 | 0.00 | 0.00 | 100 | 981.6 | |
| 20260506035629 | 12 | 25.7 | 51.5 | 0.00 | 0.00 | 0.00 | 100 | 981.6 | |
| 20260506034629 | 12 | 25.7 | 51.5 | 0.00 | 0.00 | 0.00 | 100 | 981.6 | |
| 20260506033628 | 12 | 25.7 | 51.5 | 0.00 | 0.00 | 0.00 | 100 | 981.6 | |
| 20260506032628 | 12 | 25.7 | 51.5 | 0.00 | 0.00 | 0.00 | 100 | 981.6 | |
| 20260506031628 | 12 | 25.7 | 51.5 | 0.00 | 0.00 | 0.00 | 100 | 981.6 | |
| 20260506030628 | 12 | 25.7 | 51.5 | 0.00 | 0.00 | 0.00 | 100 | 981.6 | |
| 20260506025628 | 12 | 25.7 | 51.5 | 0.00 | 0.00 | 0.00 | 100 | 981.6 | |
| 20260506024628 | 12 | 25.7 | 51.5 | 0.00 | 0.00 | 0.00 | 100 | 981.6 | |
| 20260506023628 | 12 | 25.7 | 51.5 | 0.00 | 0.00 | 0.00 | 100 | 981.6 | |
| 20260506022629 | 12 | 25.7 | 51.5 | 0.00 | 0.00 | 0.00 | 100 | 981.6 | |
| 20260506021628 | 12 | 25.7 | 51.5 | 0.00 | 0.00 | 0.00 | 100 | 981.6 | |
| 20260506020628 | 12 | 25.7 | 51.5 | 0.00 | 0.00 | 0.00 | 100 | 981.6 | |
| 20260506015628 | 12 | 25.7 | 51.5 | 0.00 | 0.00 | 0.00 | 100 | 981.6 | |
| 20260506014628 | 12 | 25.7 | 51.5 | 0.00 | 0.00 | 0.00 | 100 | 981.6 | |
| 20260506013628 | 12 | 25.7 | 51.5 | 0.00 | 0.00 | 0.00 | 100 | 981.6 | |
| 20260506012628 | 12 | 25.7 | 51.5 | 0.00 | 0.00 | 0.00 | 100 | 981.6 | |
| 20260506011628 | 12 | 25.7 | 51.5 | 0.00 | 0.00 | 0.00 | 100 | 981.6 | |
| 20260506010628 | 12 | 25.7 | 51.5 | 0.00 | 0.00 | 0.00 | 100 | 981.6 | |
| 20260506005628 | 12 | 25.7 | 51.5 | 0.00 | 0.00 | 0.00 | 100 | 981.6 | |
| 20260506004628 | 12 | 25.7 | 51.5 | 0.00 | 0.00 | 0.00 | 100 | 981.6 | |
| 20260506003628 | 12 | 25.7 | 51.5 | 0.00 | 0.00 | 0.00 | 100 | 981.6 | |
| 20260506002628 | 12 | 25.7 | 51.5 | 0.00 | 0.00 | 0.00 | 100 | 981.6 | |
| 20260506001628 | 12 | 25.7 | 51.5 | 0.00 | 0.00 | 0.00 | 100 | 981.6 | |
| 20260506000628 | 12 | 25.7 | 51.5 | 0.00 | 0.00 | 0.00 | 100 | 981.6 | |
| 20260505235628 | 12 | 25.7 | 51.5 | 0.00 | 0.00 | 0.00 | 100 | 981.6 | |
| 20260505234628 | 12 | 25.7 | 51.5 | 0.00 | 0.00 | 0.00 | 100 | 981.6 | |
| 20260505233629 | 12 | 25.7 | 51.5 | 0.00 | 0.00 | 0.00 | 100 | 981.6 | |
| 20260505232628 | 12 | 25.7 | 51.5 | 0.00 | 0.00 | 0.00 | 100 | 981.6 | |
| 20260505231628 | 12 | 25.7 | 51.5 | 0.00 | 0.00 | 0.00 | 100 | 981.6 | |
| 20260505230628 | -17 | 25.7 | 51.5 | 0.00 | 0.00 | 0.00 | |||
| 20260505225628 | -17 | 25.7 | 51.5 | 0.00 | 0.00 | 0.00 | |||
| 20260505221823 | 13 | 25.7 | 51.5 | 0.00 | 0.00 | 0.00 | 100 | 982.4 | |
| 20260505220823 | 13 | 25.7 | 51.5 | 0.00 | 0.00 | 0.00 | 100 | 982.4 | |
| 20260505215823 | 13 | 25.7 | 51.5 | 0.00 | 0.00 | 0.00 | 100 | 982.4 | |
| 20260505214823 | 13 | 25.7 | 38.6 | 0.00 | 0.00 | 0.00 | 100 | 982.7 | |
| 20260505213823 | 13 | 25.7 | 38.6 | 0.00 | 0.00 | 0.00 | 100 | 982.7 | |
| 20260505212823 | 13 | 25.7 | 38.6 | 0.00 | 0.00 | 0.00 | 100 | 982.7 | |
| 20260505211823 | 13 | 25.7 | 38.6 | 0.00 | 0.00 | 0.00 | 100 | 982.7 | |
| 20260505210823 | 13 | 25.7 | 51.5 | 0.00 | 0.00 | 0.00 | 100 | 982.7 | |
| 20260505205823 | 14 | 25.7 | 51.5 | 0.00 | 0.00 | 0.00 | 100 | 982.6 | |
| 20260505204823 | 14 | 25.7 | 51.5 | 0.00 | 0.00 | 0.00 | 100 | 982.6 | |
| 20260505203823 | 14 | 25.7 | 51.5 | 0.00 | 0.00 | 0.00 | 100 | 982.6 | |
| 20260505202823 | 14 | 25.7 | 51.5 | 0.00 | 0.00 | 0.00 | 100 | 982.6 | |
| 20260505201823 | 15 | 25.7 | 51.5 | 0.00 | 0.00 | 0.00 | 100 | 982.4 | |
| 20260505200824 | 15 | 25.7 | 64.4 | 0.00 | 0.00 | 0.00 | 100 | 982.4 | |
| 20260505195823 | 15 | 25.7 | 64.4 | 0.00 | 0.00 | 0.00 | 100 | 982.4 | |
| 20260505194823 | 15 | 25.7 | 64.4 | 0.00 | 0.00 | 0.00 | 100 | 982.4 | |
| 20260505193823 | 15 | 25.7 | 64.4 | 0.00 | 0.00 | 0.00 | 100 | 982.4 | |
| 20260505192823 | 15 | 25.7 | 77.2 | 0.00 | 0.00 | 0.00 | 100 | 982.4 |